| time (UTC) | temp F | wind direction | speed knots | gust knots | rain 1hr in | rain 24hr in | rain mn in | humidity % | barometer mb |
| 20260509184338 | 66 | 340 | 4.3 | 6.1 | 0.00 | 0.00 | 0.00 | 24 | 1023.2 |
| 20260509183835 | 67 | 306 | 2.6 | 2.6 | 0.00 | 0.00 | 0.00 | 26 | 1023.3 |
| 20260509183330 | 66 | 295 | 5.2 | 6.1 | 0.00 | 0.00 | 0.00 | 25 | 1023.3 |
| 20260509182826 | 64 | 298 | 4.3 | 5.2 | 0.00 | 0.00 | 0.00 | 25 | 1023.2 |
| 20260509182324 | 65 | 279 | 5.2 | 6.1 | 0.00 | 0.00 | 0.00 | 22 | 1023.3 |
| 20260509181821 | 66 | 126 | 4.3 | 5.2 | 0.00 | 0.00 | 0.00 | 23 | 1023.3 |
| 20260509181318 | 65 | 270 | 1.7 | 2.6 | 0.00 | 0.00 | 0.00 | 27 | 1023.2 |
| 20260509180815 | 66 | 15 | 4.3 | 5.2 | 0.00 | 0.00 | 0.00 | 27 | 1023.2 |
| 20260509180311 | 64 | 339 | 6.1 | 9.6 | 0.00 | 0.00 | 0.00 | 27 | 1023.2 |
| 20260509175808 | 64 | 266 | 5.2 | 6.1 | 0.00 | 0.00 | 0.00 | 27 | 1023.3 |
| 20260509175306 | 63 | 322 | 5.2 | 7.8 | 0.00 | 0.00 | 0.00 | 28 | 1023.0 |
| 20260509174801 | 62 | 260 | 5.2 | 7.8 | 0.00 | 0.00 | 0.00 | 27 | 1023.2 |
| 20260509174256 | 63 | 203 | 3.5 | 4.3 | 0.00 | 0.00 | 0.00 | 29 | 1023.6 |
| 20260509173752 | 64 | 264 | 3.5 | 5.2 | 0.00 | 0.00 | 0.00 | 25 | 1023.6 |
| 20260509173248 | 63 | 170 | 4.3 | 6.1 | 0.00 | 0.00 | 0.00 | 26 | 1023.3 |
| 20260509172744 | 62 | 22 | 6.1 | 7.8 | 0.00 | 0.00 | 0.00 | 26 | 1023.8 |
| 20260509172241 | 62 | 292 | 6.1 | 7.0 | 0.00 | 0.00 | 0.00 | 28 | 1023.7 |
| 20260509171736 | 63 | 226 | 0.9 | 1.7 | 0.00 | 0.00 | 0.00 | 27 | 1023.3 |
| 20260509171233 | 63 | 266 | 5.2 | 7.0 | 0.00 | 0.00 | 0.00 | 25 | 1023.5 |
| 20260509170730 | 63 | 248 | 3.5 | 4.3 | 0.00 | 0.00 | 0.00 | 26 | 1023.2 |
| 20260509170225 | 63 | 234 | 4.3 | 6.1 | 0.00 | 0.00 | 0.00 | 25 | 1023.8 |
| 20260509165724 | 63 | 217 | 1.7 | 2.6 | 0.00 | 0.00 | 0.00 | 27 | 1023.6 |
| 20260509165219 | 62 | 145 | 6.1 | 9.6 | 0.00 | 0.00 | 0.00 | 27 | 1023.3 |
| 20260509164716 | 63 | 192 | 3.5 | 4.3 | 0.00 | 0.00 | 0.00 | 27 | 1023.3 |
| 20260509164211 | 62 | 235 | 4.3 | 6.1 | 0.00 | 0.00 | 0.00 | 25 | 1023.2 |
| 20260509163709 | 62 | 289 | 7.8 | 11.3 | 0.00 | 0.00 | 0.00 | 26 | 1023.2 |
| 20260509163206 | 62 | 255 | 7.8 | 8.7 | 0.00 | 0.00 | 0.00 | 28 | 1023.5 |
| 20260509162703 | 61 | 231 | 3.5 | 4.3 | 0.00 | 0.00 | 0.00 | 31 | 1023.2 |
| 20260509162159 | 61 | 282 | 2.6 | 2.6 | 0.00 | 0.00 | 0.00 | 35 | 1023.5 |
| 20260509161654 | 61 | 216 | 1.7 | 1.7 | 0.00 | 0.00 | 0.00 | 33 | 1023.3 |
| 20260509161150 | 62 | 234 | 1.7 | 1.7 | 0.00 | 0.00 | 0.00 | 33 | 1023.3 |
| 20260509160646 | 61 | 20 | 1.7 | 1.7 | 0.00 | 0.00 | 0.00 | 32 | 1023.2 |
| 20260509160141 | 60 | 12 | 0.9 | 0.9 | 0.00 | 0.00 | 0.00 | 33 | 1023.3 |
| 20260509155638 | 60 | 181 | 0.9 | 0.9 | 0.00 | 0.00 | 0.00 | 32 | 1023.2 |
| 20260509155134 | 59 | 205 | 1.7 | 2.6 | 0.00 | 0.00 | 0.00 | 33 | 1023.3 |
| 20260509154630 | 59 | 14 | 4.3 | 6.1 | 0.00 | 0.00 | 0.00 | 33 | 1023.3 |
| 20260509154127 | 59 | 318 | 3.5 | 4.3 | 0.00 | 0.00 | 0.00 | 33 | 1023.5 |
| 20260509153624 | 57 | 126 | 1.7 | 1.7 | 0.00 | 0.00 | 0.00 | 33 | 1023.6 |
| 20260509153121 | 57 | 5 | 2.6 | 2.6 | 0.00 | 0.00 | 0.00 | 35 | 1023.5 |
| 20260509152617 | 57 | 40 | 2.6 | 2.6 | 0.00 | 0.00 | 0.00 | 34 | 1023.3 |
| 20260509152114 | 56 | 358 | 2.6 | 2.6 | 0.00 | 0.00 | 0.00 | 35 | 1023.6 |
| 20260509151610 | 57 | 246 | 2.6 | 2.6 | 0.00 | 0.00 | 0.00 | 36 | 1023.3 |
| 20260509151108 | 57 | 226 | 0.0 | 0.9 | 0.00 | 0.00 | 0.00 | 37 | 1023.5 |
| 20260509150606 | 57 | 166 | 0.0 | 0.9 | 0.00 | 0.00 | 0.00 | 38 | 1023.8 |
| 20260509150104 | 56 | 176 | 0.0 | 0.9 | 0.00 | 0.00 | 0.00 | 37 | 1023.5 |
| 20260509145559 | 55 | 24 | 0.9 | 1.7 | 0.00 | 0.00 | 0.00 | 40 | 1023.7 |
| 20260509145055 | 55 | 42 | 0.0 | 0.9 | 0.00 | 0.00 | 0.00 | 39 | 1024.0 |
| 20260509144552 | 55 | 178 | 0.9 | 0.9 | 0.00 | 0.00 | 0.00 | 40 | 1023.7 |
| 20260509144049 | 53 | 201 | 0.9 | 0.9 | 0.00 | 0.00 | 0.00 | 43 | 1023.8 |
| 20260509143546 | 53 | 201 | 0.0 | 0.0 | 0.00 | 0.00 | 0.00 | 46 | 1024.1 |
| 20260509143044 | 51 | 148 | 1.7 | 1.7 | 0.00 | 0.00 | 0.00 | 46 | 1024.0 |
| 20260509142539 | 49 | 192 | 0.0 | 0.0 | 0.00 | 0.00 | 0.00 | 52 | 1024.2 |
| 20260509142035 | 46 | 193 | 0.0 | 0.0 | 0.00 | 0.00 | 0.00 | 55 | 1024.2 |
| 20260509141531 | 44 | 308 | 0.9 | 0.9 | 0.00 | 0.00 | 0.00 | 57 | 1023.8 |
| 20260509141028 | 43 | 197 | 0.0 | 0.0 | 0.00 | 0.00 | 0.00 | 58 | 1023.8 |
| 20260509140525 | 42 | 212 | 0.0 | 0.0 | 0.00 | 0.00 | 0.00 | 62 | 1024.0 |
| 20260509140023 | 42 | 225 | 0.0 | 0.0 | 0.00 | 0.00 | 0.00 | 60 | 1024.1 |
| 20260509135520 | 42 | 174 | 1.7 | 1.7 | 0.00 | 0.00 | 0.00 | 59 | 1023.8 |
| 20260509135017 | 43 | 183 | 0.9 | 0.9 | 0.00 | 0.00 | 0.00 | 61 | 1023.8 |
| 20260509134514 | 44 | 212 | 0.0 | 0.0 | 0.00 | 0.00 | 0.00 | 58 | 1024.1 |
| 20260509134012 | 44 | 193 | 0.9 | 0.9 | 0.00 | 0.00 | 0.00 | 57 | 1024.0 |
| 20260509133508 | 45 | 228 | 0.9 | 1.7 | 0.00 | 0.00 | 0.00 | 54 | 1024.1 |
| 20260509133007 | 45 | 203 | 0.9 | 0.9 | 0.00 | 0.00 | 0.00 | 52 | 1024.0 |
| 20260509132505 | 47 | 222 | 0.0 | 0.0 | 0.00 | 0.00 | 0.00 | 51 | 1023.6 |
| 20260509132002 | 48 | 199 | 0.0 | 0.9 | 0.00 | 0.00 | 0.00 | 47 | 1023.7 |
| 20260509131458 | 49 | 220 | 0.0 | 0.0 | 0.00 | 0.00 | 0.00 | 46 | 1023.6 |
| 20260509130955 | 49 | 230 | 0.9 | 0.9 | 0.00 | 0.00 | 0.00 | 42 | 1023.8 |
| 20260509130450 | 49 | 231 | 0.9 | 1.7 | 0.00 | 0.00 | 0.00 | 43 | 1023.2 |
| 20260509125942 | 49 | 258 | 2.6 | 2.6 | 0.00 | 0.00 | 0.00 | 43 | 1023.2 |
| 20260509125439 | 49 | 221 | 2.6 | 2.6 | 0.00 | 0.00 | 0.00 | 45 | 1023.0 |
| 20260509124934 | 50 | 260 | 0.9 | 0.9 | 0.00 | 0.00 | 0.00 | 45 | 1023.0 |
| 20260509124432 | 51 | 221 | 0.9 | 0.9 | 0.00 | 0.00 | 0.00 | 44 | 1023.0 |
| 20260509123929 | 51 | 252 | 1.7 | 1.7 | 0.00 | 0.00 | 0.00 | 42 | 1023.0 |
| 20260509123427 | 51 | 320 | 0.9 | 1.7 | 0.00 | 0.00 | 0.00 | 42 | 1022.8 |
| 20260509122922 | 52 | 19 | 0.9 | 1.7 | 0.00 | 0.00 | 0.00 | 40 | 1022.5 |
| 20260509122419 | 51 | 208 | 1.7 | 1.7 | 0.00 | 0.00 | 0.00 | 42 | 1022.6 |
| 20260509121916 | 51 | 184 | 0.9 | 0.9 | 0.00 | 0.00 | 0.00 | 43 | 1022.0 |
| 20260509121413 | 51 | 239 | 1.7 | 1.7 | 0.00 | 0.00 | 0.00 | 42 | 1021.8 |
| 20260509120911 | 51 | 336 | 3.5 | 5.2 | 0.00 | 0.00 | 0.00 | 42 | 1021.7 |
| 20260509120408 | 51 | 232 | 3.5 | 4.3 | 0.00 | 0.00 | 0.00 | 44 | 1021.6 |
| 20260509115906 | 50 | 240 | 2.6 | 2.6 | 0.00 | 0.00 | 0.00 | 45 | 1021.8 |
| 20260509115403 | 50 | 237 | 4.3 | 5.2 | 0.00 | 0.00 | 0.00 | 47 | 1021.8 |
| 20260509114901 | 49 | 320 | 4.3 | 5.2 | 0.00 | 0.00 | 0.00 | 49 | 1021.7 |
| 20260509114359 | 49 | 231 | 1.7 | 1.7 | 0.00 | 0.00 | 0.00 | 49 | 1021.8 |
| 20260509113858 | 48 | 244 | 2.6 | 2.6 | 0.00 | 0.00 | 0.00 | 50 | 1021.7 |
| 20260509113355 | 47 | 237 | 4.3 | 5.2 | 0.00 | 0.00 | 0.00 | 52 | 1021.6 |
| 20260509112852 | 48 | 243 | 2.6 | 4.3 | 0.00 | 0.00 | 0.00 | 52 | 1021.4 |
| 20260509112349 | 47 | 286 | 4.3 | 5.2 | 0.00 | 0.00 | 0.00 | 53 | 1021.4 |
| 20260509111846 | 47 | 312 | 4.3 | 5.2 | 0.00 | 0.00 | 0.00 | 55 | 1021.6 |
| 20260509111343 | 47 | 236 | 4.3 | 6.1 | 0.00 | 0.00 | 0.00 | 53 | 1021.6 |
| 20260509110841 | 46 | 222 | 4.3 | 5.2 | 0.00 | 0.00 | 0.00 | 54 | 1021.6 |
| 20260509110336 | 46 | 268 | 2.6 | 4.3 | 0.00 | 0.00 | 0.00 | 57 | 1021.6 |
| 20260509105835 | 44 | 244 | 2.6 | 4.3 | 0.00 | 0.00 | 0.00 | 60 | 1021.7 |
| 20260509105333 | 45 | 247 | 4.3 | 4.3 | 0.00 | 0.00 | 0.00 | 61 | 1021.8 |
| 20260509104829 | 44 | 272 | 2.6 | 2.6 | 0.00 | 0.00 | 0.00 | 60 | 1022.0 |
| 20260509104326 | 44 | 215 | 2.6 | 2.6 | 0.00 | 0.00 | 0.00 | 62 | 1022.2 |
| 20260509103824 | 42 | 244 | 2.6 | 4.3 | 0.00 | 0.00 | 0.00 | 67 | 1022.1 |
| 20260509103321 | 41 | 228 | 2.6 | 2.6 | 0.00 | 0.00 | 0.00 | 69 | 1022.0 |
| 20260509102820 | 40 | 264 | 1.7 | 1.7 | 0.00 | 0.00 | 0.00 | 72 | 1021.8 |
| 20260509102317 | 40 | 234 | 1.7 | 1.7 | 0.00 | 0.00 | 0.00 | 73 | 1022.0 |
| 20260509101812 | 40 | 271 | 2.6 | 2.6 | 0.00 | 0.00 | 0.00 | 73 | 1022.0 |
| 20260509101308 | 41 | 234 | 0.9 | 1.7 | 0.00 | 0.00 | 0.00 | 71 | 1021.8 |
| 20260509100807 | 40 | 234 | 1.7 | 1.7 | 0.00 | 0.00 | 0.00 | 75 | 1022.1 |
| 20260509100303 | 39 | 250 | 0.9 | 0.9 | 0.00 | 0.00 | 0.00 | 79 | 1022.5 |
| 20260509095759 | 38 | 186 | 0.0 | 0.0 | 0.00 | 0.00 | 0.00 | 79 | 1022.3 |
| 20260509095257 | 39 | 236 | 0.9 | 0.9 | 0.00 | 0.00 | 0.00 | 75 | 1022.1 |
| 20260509094754 | 39 | 199 | 0.0 | 0.9 | 0.00 | 0.00 | 0.00 | 77 | 1022.2 |
| 20260509094251 | 39 | 203 | 0.9 | 0.9 | 0.00 | 0.00 | 0.00 | 76 | 1022.3 |
| 20260509093749 | 39 | 292 | 0.9 | 1.7 | 0.00 | 0.00 | 0.00 | 76 | 1022.3 |
| 20260509093246 | 39 | 216 | 0.0 | 0.0 | 0.00 | 0.00 | 0.00 | 76 | 1022.2 |
| 20260509092744 | 40 | 260 | 0.9 | 0.9 | 0.00 | 0.00 | 0.00 | 75 | 1022.3 |
| 20260509092242 | 40 | 219 | 0.0 | 0.0 | 0.00 | 0.00 | 0.00 | 73 | 1022.2 |
| 20260509091739 | 40 | 202 | 0.9 | 0.9 | 0.00 | 0.00 | 0.00 | 73 | 1022.3 |
| 20260509091235 | 41 | 192 | 0.0 | 0.0 | 0.00 | 0.00 | 0.00 | 73 | 1022.1 |
| 20260509090733 | 41 | 216 | 0.0 | 0.0 | 0.00 | 0.00 | 0.00 | 74 | 1022.2 |
| 20260509090231 | 41 | 177 | 0.9 | 0.9 | 0.00 | 0.00 | 0.00 | 72 | 1022.1 |
| 20260509085728 | 41 | 201 | 0.9 | 0.9 | 0.00 | 0.00 | 0.00 | 72 | 1022.1 |
| 20260509085225 | 41 | 216 | 0.0 | 0.9 | 0.00 | 0.00 | 0.00 | 73 | 1022.1 |
| 20260509084721 | 41 | 190 | 1.7 | 1.7 | 0.00 | 0.00 | 0.00 | 72 | 1022.1 |
| 20260509084218 | 41 | 216 | 0.0 | 0.0 | 0.00 | 0.00 | 0.00 | 72 | 1022.2 |
| 20260509083716 | 41 | 196 | 0.0 | 0.9 | 0.00 | 0.00 | 0.00 | 71 | 1022.1 |
| 20260509083212 | 42 | 202 | 0.0 | 0.0 | 0.00 | 0.00 | 0.00 | 71 | 1022.2 |
| 20260509082709 | 42 | 223 | 0.0 | 0.0 | 0.00 | 0.00 | 0.00 | 70 | 1022.0 |
| 20260509082206 | 42 | 205 | 0.0 | 0.9 | 0.00 | 0.00 | 0.00 | 70 | 1022.5 |
| 20260509081703 | 41 | 219 | 0.0 | 0.0 | 0.00 | 0.00 | 0.00 | 71 | 1022.2 |
| 20260509081200 | 41 | 182 | 0.9 | 0.9 | 0.00 | 0.00 | 0.00 | 75 | 1022.5 |
| 20260509080659 | 41 | 215 | 0.0 | 0.0 | 0.00 | 0.00 | 0.00 | 75 | 1022.5 |
| 20260509080156 | 42 | 211 | 0.0 | 0.0 | 0.00 | 0.00 | 0.00 | 74 | 1022.1 |
| 20260509075654 | 44 | 227 | 0.0 | 0.0 | 0.00 | 0.00 | 0.00 | 70 | 1022.2 |
| 20260509075151 | 43 | 215 | 0.0 | 0.0 | 0.00 | 0.00 | 0.00 | 68 | 1022.3 |
| 20260509074648 | 41 | 210 | 0.9 | 0.9 | 0.00 | 0.00 | 0.00 | 69 | 1022.3 |
| 20260509074144 | 41 | 266 | 0.9 | 0.9 | 0.00 | 0.00 | 0.00 | 78 | 1022.5 |
| 20260509073641 | 41 | 218 | 0.0 | 0.0 | 0.00 | 0.00 | 0.00 | 77 | 1022.0 |
| 20260509073137 | 42 | 199 | 0.0 | 0.0 | 0.00 | 0.00 | 0.00 | 76 | 1022.1 |
| 20260509072635 | 43 | 225 | 0.0 | 0.0 | 0.00 | 0.00 | 0.00 | 73 | 1022.2 |
| 20260509072131 | 44 | 221 | 0.0 | 0.0 | 0.00 | 0.00 | 0.00 | 73 | 1022.2 |
| 20260509071628 | 44 | 219 | 0.0 | 0.0 | 0.00 | 0.00 | 0.00 | 75 | 1022.2 |
| 20260509071125 | 43 | 199 | 0.9 | 0.9 | 0.00 | 0.00 | 0.00 | 79 | 1022.3 |
| 20260509070622 | 44 | 230 | 0.0 | 0.9 | 0.00 | 0.00 | 0.00 | 76 | 1022.2 |
| 20260509070119 | 45 | 189 | 1.7 | 1.7 | 0.00 | 0.00 | 0.00 | 69 | 1022.2 |
| 20260509065614 | 43 | 185 | 0.9 | 1.7 | 0.00 | 0.00 | 0.00 | 78 | 1022.2 |
| 20260509065110 | 41 | 172 | 0.9 | 1.7 | 0.00 | 0.00 | 0.00 | 84 | 1022.6 |
| 20260509064607 | 42 | 164 | 2.6 | 2.6 | 0.00 | 0.00 | 0.00 | 84 | 1022.5 |
| 20260509064100 | 44 | 189 | 0.9 | 0.9 | 0.00 | 0.00 | 0.00 | 80 | 1022.3 |
| 20260509063555 | 43 | 222 | 0.0 | 0.0 | 0.00 | 0.00 | 0.00 | 82 | 1022.5 |
| 20260509063053 | 43 | 210 | 0.0 | 0.9 | 0.00 | 0.00 | 0.00 | 81 | 1022.5 |
| 20260509062550 | 44 | 210 | 0.0 | 0.0 | 0.00 | 0.00 | 0.00 | 80 | 1022.7 |
| 20260509062048 | 44 | 177 | 0.9 | 1.7 | 0.00 | 0.00 | 0.00 | 77 | 1022.5 |
| 20260509061544 | 44 | 209 | 0.0 | 0.0 | 0.00 | 0.00 | 0.00 | 78 | 1022.6 |
| 20260509061042 | 46 | 186 | 0.9 | 0.9 | 0.00 | 0.00 | 0.00 | 78 | 1022.8 |
| 20260509060539 | 47 | 190 | 0.9 | 0.9 | 0.00 | 0.00 | 0.00 | 72 | 1023.0 |
| 20260509060034 | 46 | 181 | 0.0 | 0.9 | 0.00 | 0.00 | 0.00 | 74 | 1023.0 |
| 20260509055530 | 45 | 155 | 1.7 | 1.7 | 0.00 | 0.00 | 0.00 | 75 | 1023.2 |
| 20260509055027 | 41 | 178 | 0.9 | 0.9 | 0.00 | 0.00 | 0.00 | 85 | 1023.0 |
| 20260509054523 | 40 | 233 | 0.0 | 0.0 | 0.00 | 0.00 | 0.00 | 86 | 1023.2 |
| 20260509054021 | 40 | 183 | 0.9 | 0.9 | 0.00 | 0.00 | 0.00 | 86 | 1023.2 |
| 20260509053520 | 40 | 223 | 0.0 | 0.0 | 0.00 | 0.00 | 0.00 | 85 | 1023.3 |
| 20260509053016 | 41 | 225 | 0.0 | 0.9 | 0.00 | 0.00 | 0.00 | 84 | 1023.3 |
| 20260509052514 | 40 | 212 | 0.0 | 0.0 | 0.00 | 0.00 | 0.00 | 85 | 1023.1 |
| 20260509052012 | 41 | 241 | 0.0 | 0.0 | 0.00 | 0.00 | 0.00 | 85 | 1023.3 |
| 20260509051509 | 41 | 205 | 0.0 | 0.9 | 0.00 | 0.00 | 0.00 | 85 | 1023.3 |
| 20260509051006 | 41 | 221 | 0.0 | 0.0 | 0.00 | 0.00 | 0.00 | 84 | 1023.3 |
| 20260509050502 | 42 | 222 | 0.0 | 0.0 | 0.00 | 0.00 | 0.00 | 81 | 1023.6 |
| 20260509045959 | 41 | 206 | 0.0 | 0.0 | 0.00 | 0.00 | 0.00 | 83 | 1023.6 |
| 20260509045456 | 41 | 210 | 0.0 | 0.0 | 0.00 | 0.00 | 0.00 | 84 | 1024.0 |
| 20260509044953 | 42 | 199 | 0.0 | 0.0 | 0.00 | 0.00 | 0.00 | 84 | 1024.0 |
| 20260509044451 | 42 | 218 | 0.0 | 0.0 | 0.00 | 0.00 | 0.00 | 85 | 1023.8 |
| 20260509043948 | 42 | 210 | 0.0 | 0.0 | 0.00 | 0.00 | 0.00 | 84 | 1024.0 |
| 20260509043444 | 43 | 205 | 0.9 | 0.9 | 0.00 | 0.00 | 0.00 | 83 | 1024.4 |
| 20260509042939 | 44 | 222 | 0.0 | 0.0 | 0.00 | 0.00 | 0.00 | 81 | 1024.1 |
| 20260509042437 | 45 | 226 | 0.0 | 0.0 | 0.00 | 0.00 | 0.00 | 79 | 1024.2 |
| 20260509041933 | 46 | 227 | 0.0 | 0.9 | 0.00 | 0.00 | 0.00 | 76 | 1024.1 |
| 20260509041430 | 46 | 221 | 0.0 | 0.0 | 0.00 | 0.00 | 0.00 | 76 | 1024.1 |
| 20260509040928 | 46 | 273 | 1.7 | 1.7 | 0.00 | 0.00 | 0.00 | 76 | 1024.1 |
| 20260509040426 | 46 | 243 | 0.9 | 0.9 | 0.00 | 0.00 | 0.00 | 76 | 1023.8 |
| 20260509035922 | 46 | 220 | 0.0 | 0.0 | 0.00 | 0.00 | 0.00 | 76 | 1023.8 |
| 20260509035419 | 46 | 222 | 0.0 | 0.0 | 0.00 | 0.00 | 0.00 | 77 | 1024.0 |
| 20260509034915 | 46 | 200 | 0.9 | 0.9 | 0.00 | 0.00 | 0.00 | 79 | 1024.4 |
| 20260509034414 | 46 | 225 | 0.0 | 0.0 | 0.00 | 0.00 | 0.00 | 79 | 1024.4 |
| 20260509033910 | 46 | 151 | 1.7 | 1.7 | 0.00 | 0.00 | 0.00 | 77 | 1024.5 |
| 20260509033407 | 46 | 205 | 0.9 | 0.9 | 0.00 | 0.00 | 0.00 | 78 | 1024.4 |
| 20260509032904 | 47 | 215 | 0.0 | 0.0 | 0.00 | 0.00 | 0.00 | 77 | 1024.6 |
| 20260509032401 | 47 | 221 | 1.7 | 1.7 | 0.00 | 0.00 | 0.00 | 75 | 1024.5 |
| 20260509031859 | 46 | 160 | 2.6 | 2.6 | 0.00 | 0.00 | 0.00 | 77 | 1024.6 |
| 20260509031356 | 47 | 234 | 0.9 | 0.9 | 0.00 | 0.00 | 0.00 | 80 | 1025.0 |
| 20260509030853 | 46 | 199 | 0.9 | 0.9 | 0.00 | 0.00 | 0.00 | 76 | 1024.2 |
| 20260509030351 | 46 | 221 | 0.0 | 0.0 | 0.00 | 0.00 | 0.00 | 76 | 1024.4 |
| 20260509025848 | 46 | 223 | 0.0 | 0.0 | 0.00 | 0.00 | 0.00 | 77 | 1024.1 |
| 20260509025343 | 47 | 220 | 0.0 | 0.0 | 0.00 | 0.00 | 0.00 | 75 | 1023.7 |
| 20260509024839 | 48 | 222 | 0.0 | 0.0 | 0.00 | 0.00 | 0.00 | 75 | 1024.1 |
| 20260509024335 | 48 | 226 | 0.0 | 0.0 | 0.00 | 0.00 | 0.00 | 74 | 1023.7 |
| 20260509023833 | 48 | 313 | 0.9 | 0.9 | 0.00 | 0.00 | 0.00 | 74 | 1023.7 |
| 20260509023330 | 49 | 160 | 1.7 | 1.7 | 0.00 | 0.00 | 0.00 | 72 | 1023.5 |
| 20260509022827 | 50 | 227 | 0.9 | 0.9 | 0.00 | 0.00 | 0.00 | 70 | 1023.5 |
| 20260509022324 | 49 | 163 | 1.7 | 1.7 | 0.00 | 0.00 | 0.00 | 71 | 1023.5 |
| 20260509021820 | 49 | 222 | 0.0 | 0.0 | 0.00 | 0.00 | 0.00 | 70 | 1023.6 |
| 20260509021318 | 49 | 186 | 0.9 | 1.7 | 0.00 | 0.00 | 0.00 | 71 | 1023.8 |
| 20260509020815 | 49 | 203 | 0.9 | 0.9 | 0.00 | 0.00 | 0.00 | 73 | 1023.7 |
| 20260509020313 | 50 | 224 | 0.9 | 0.9 | 0.00 | 0.00 | 0.00 | 72 | 1023.6 |
| 20260509015811 | 51 | 241 | 0.0 | 0.0 | 0.00 | 0.00 | 0.00 | 67 | 1023.5 |
| 20260509015309 | 51 | 198 | 0.9 | 0.9 | 0.00 | 0.00 | 0.00 | 67 | 1023.2 |
| 20260509014805 | 52 | 196 | 0.9 | 0.9 | 0.00 | 0.00 | 0.00 | 66 | 1023.2 |
| 20260509014302 | 52 | 224 | 0.0 | 0.0 | 0.00 | 0.00 | 0.00 | 66 | 1023.5 |
| 20260509013758 | 53 | 221 | 0.0 | 0.0 | 0.00 | 0.00 | 0.00 | 62 | 1023.3 |
| 20260509013254 | 53 | 197 | 0.9 | 0.9 | 0.00 | 0.00 | 0.00 | 62 | 1023.2 |
| 20260509012751 | 54 | 211 | 0.0 | 0.9 | 0.00 | 0.00 | 0.00 | 62 | 1023.3 |
| 20260509012248 | 54 | 210 | 0.0 | 0.0 | 0.00 | 0.00 | 0.00 | 63 | 1023.3 |
| 20260509011745 | 55 | 223 | 0.0 | 0.0 | 0.00 | 0.00 | 0.00 | 60 | 1023.2 |
| 20260509011243 | 55 | 234 | 0.0 | 0.0 | 0.00 | 0.00 | 0.00 | 59 | 1023.2 |
| 20260509010740 | 55 | 240 | 0.0 | 0.0 | 0.00 | 0.00 | 0.00 | 58 | 1023.1 |
| 20260509010236 | 56 | 188 | 0.9 | 1.7 | 0.00 | 0.00 | 0.00 | 57 | 1023.0 |
| 20260509005734 | 56 | 191 | 0.9 | 0.9 | 0.00 | 0.00 | 0.00 | 59 | 1023.1 |
| 20260509005231 | 57 | 225 | 0.0 | 0.0 | 0.00 | 0.00 | 0.00 | 57 | 1023.1 |
| 20260509004725 | 57 | 228 | 0.9 | 1.7 | 0.00 | 0.00 | 0.00 | 54 | 1022.8 |
| 20260509004224 | 57 | 123 | 1.7 | 2.6 | 0.00 | 0.00 | 0.00 | 56 | 1023.1 |
| 20260509003721 | 57 | 349 | 3.5 | 5.2 | 0.00 | 0.00 | 0.00 | 55 | 1023.0 |
| 20260509003219 | 56 | 218 | 2.6 | 2.6 | 0.00 | 0.00 | 0.00 | 56 | 1023.0 |
| 20260509002716 | 56 | 224 | 0.0 | 0.0 | 0.00 | 0.00 | 0.00 | 57 | 1023.1 |
| 20260509002214 | 56 | 303 | 2.6 | 2.6 | 0.00 | 0.00 | 0.00 | 57 | 1023.1 |
| 20260509001711 | 56 | 262 | 0.9 | 0.9 | 0.00 | 0.00 | 0.00 | 56 | 1023.0 |
| 20260509001206 | 58 | 152 | 1.7 | 1.7 | 0.00 | 0.00 | 0.00 | 55 | 1023.1 |
| 20260509000705 | 56 | 305 | 0.0 | 0.9 | 0.00 | 0.00 | 0.00 | 56 | 1023.1 |
| 20260509000204 | 56 | 206 | 0.9 | 1.7 | 0.00 | 0.00 | 0.00 | 57 | 1023.3 |
| 20260508235658 | 56 | 106 | 2.6 | 5.2 | 0.00 | 0.00 | 0.00 | 56 | 1023.2 |
| 20260508235155 | 56 | 195 | 0.9 | 0.9 | 0.00 | 0.00 | 0.00 | 57 | 1023.2 |
| 20260508234652 | 57 | 210 | 0.0 | 0.0 | 0.00 | 0.00 | 0.00 | 57 | 1023.1 |
| 20260508234148 | 57 | 220 | 0.0 | 0.0 | 0.00 | 0.00 | 0.00 | 56 | 1023.0 |
| 20260508233643 | 57 | 243 | 1.7 | 1.7 | 0.00 | 0.00 | 0.00 | 56 | 1023.0 |
| 20260508233140 | 57 | 264 | 0.0 | 0.9 | 0.00 | 0.00 | 0.00 | 56 | 1023.0 |
| 20260508232637 | 56 | 111 | 2.6 | 2.6 | 0.00 | 0.00 | 0.00 | 57 | 1023.0 |
| 20260508232133 | 56 | 215 | 1.7 | 1.7 | 0.00 | 0.00 | 0.00 | 57 | 1022.8 |
| 20260508231631 | 57 | 175 | 0.9 | 1.7 | 0.00 | 0.00 | 0.00 | 56 | 1022.6 |
| 20260508231127 | 57 | 259 | 2.6 | 2.6 | 0.00 | 0.00 | 0.00 | 56 | 1022.7 |
| 20260508230618 | 57 | 33 | 4.3 | 6.1 | 0.00 | 0.00 | 0.00 | 56 | 1023.0 |
| 20260508230115 | 57 | 231 | 2.6 | 2.6 | 0.00 | 0.00 | 0.00 | 55 | 1022.6 |
| 20260508225613 | 58 | 143 | 0.0 | 0.9 | 0.00 | 0.00 | 0.00 | 55 | 1022.7 |
| 20260508225108 | 57 | 221 | 0.0 | 0.9 | 0.00 | 0.00 | 0.00 | 56 | 1022.8 |
| 20260508224607 | 57 | 225 | 0.0 | 0.0 | 0.00 | 0.00 | 0.00 | 55 | 1022.8 |
| 20260508224104 | 57 | 97 | 1.7 | 1.7 | 0.00 | 0.00 | 0.00 | 55 | 1022.7 |
| 20260508223602 | 58 | 227 | 1.7 | 2.6 | 0.00 | 0.00 | 0.00 | 53 | 1022.7 |
| 20260508223059 | 57 | 351 | 1.7 | 2.6 | 0.00 | 0.00 | 0.00 | 55 | 1022.5 |
| 20260508222556 | 59 | 169 | 1.7 | 1.7 | 0.00 | 0.00 | 0.00 | 54 | 1022.7 |
| 20260508222053 | 59 | 261 | 2.6 | 2.6 | 0.00 | 0.00 | 0.00 | 54 | 1023.0 |
| 20260508221549 | 57 | 104 | 0.9 | 0.9 | 0.00 | 0.00 | 0.00 | 53 | 1022.8 |
| 20260508221045 | 59 | 187 | 2.6 | 2.6 | 0.00 | 0.00 | 0.00 | 52 | 1022.7 |
| 20260508220542 | 59 | 80 | 2.6 | 4.3 | 0.00 | 0.00 | 0.00 | 53 | 1022.8 |
| 20260508220038 | 59 | 222 | 0.9 | 1.7 | 0.00 | 0.00 | 0.00 | 53 | 1022.8 |
| 20260508215535 | 60 | 56 | 0.9 | 1.7 | 0.00 | 0.00 | 0.00 | 50 | 1023.0 |
| 20260508215032 | 61 | 56 | 3.5 | 5.2 | 0.00 | 0.00 | 0.00 | 50 | 1022.8 |
| 20260508214530 | 60 | 232 | 1.7 | 1.7 | 0.00 | 0.00 | 0.00 | 51 | 1022.8 |
| 20260508214026 | 61 | 121 | 3.5 | 6.1 | 0.00 | 0.00 | 0.00 | 50 | 1022.8 |
| 20260508213524 | 62 | 243 | 2.6 | 4.3 | 0.00 | 0.00 | 0.00 | 50 | 1022.7 |
| 20260508213019 | 61 | 136 | 5.2 | 7.8 | 0.00 | 0.00 | 0.00 | 49 | 1022.8 |
| 20260508212515 | 61 | 179 | 1.7 | 5.2 | 0.00 | 0.00 | 0.00 | 51 | 1023.0 |
| 20260508212012 | 61 | 199 | 4.3 | 6.1 | 0.00 | 0.00 | 0.00 | 50 | 1022.8 |
| 20260508211507 | 60 | 210 | 1.7 | 1.7 | 0.00 | 0.00 | 0.00 | 51 | 1022.7 |
| 20260508211004 | 58 | 340 | 2.6 | 4.3 | 0.00 | 0.00 | 0.00 | 54 | 1023.0 |
| 20260508210500 | 57 | 295 | 2.6 | 2.6 | 0.00 | 0.00 | 0.00 | 55 | 1023.2 |
| 20260508205957 | 59 | 192 | 3.5 | 6.1 | 0.00 | 0.00 | 0.00 | 55 | 1023.1 |
| 20260508205455 | 59 | 110 | 2.6 | 5.2 | 0.00 | 0.00 | 0.00 | 53 | 1023.1 |
| 20260508204951 | 63 | 301 | 1.7 | 1.7 | 0.00 | 0.00 | 0.00 | 49 | 1023.2 |
| 20260508204448 | 58 | 259 | 1.7 | 2.6 | 0.00 | 0.00 | 0.00 | 54 | 1023.1 |
| 20260508203943 | 58 | 48 | 1.7 | 2.6 | 0.00 | 0.00 | 0.00 | 53 | 1023.0 |
| 20260508203440 | 58 | 318 | 2.6 | 4.3 | 0.00 | 0.00 | 0.00 | 53 | 1023.2 |
| 20260508202935 | 57 | 280 | 0.9 | 1.7 | 0.00 | 0.00 | 0.00 | 55 | 1023.3 |
| 20260508202433 | 57 | 250 | 2.6 | 2.6 | 0.00 | 0.00 | 0.00 | 56 | 1023.2 |
| 20260508201930 | 59 | 188 | 4.3 | 7.0 | 0.00 | 0.00 | 0.00 | 54 | 1023.3 |
| 20260508201427 | 58 | 320 | 1.7 | 1.7 | 0.00 | 0.00 | 0.00 | 53 | 1023.3 |
| 20260508200924 | 59 | 120 | 7.0 | 12.2 | 0.00 | 0.00 | 0.00 | 52 | 1023.5 |
| 20260508200421 | 58 | 156 | 0.0 | 0.9 | 0.00 | 0.00 | 0.00 | 56 | 1023.0 |
| 20260508195915 | 58 | 142 | 3.5 | 5.2 | 0.00 | 0.00 | 0.00 | 55 | 1023.6 |
| 20260508195413 | 59 | 347 | 2.6 | 4.3 | 0.00 | 0.00 | 0.00 | 54 | 1023.5 |
| 20260508194908 | 59 | 169 | 3.5 | 4.3 | 0.00 | 0.00 | 0.00 | 54 | 1023.5 |
| 20260508194406 | 58 | 47 | 1.7 | 2.6 | 0.00 | 0.00 | 0.00 | 54 | 1023.2 |
| 20260508193857 | 58 | 274 | 2.6 | 4.3 | 0.00 | 0.00 | 0.00 | 56 | 1023.7 |
| 20260508193354 | 58 | 36 | 1.7 | 2.6 | 0.00 | 0.00 | 0.00 | 58 | 1023.6 |
| 20260508192850 | 58 | 217 | 1.7 | 2.6 | 0.00 | 0.00 | 0.00 | 54 | 1023.8 |
| 20260508192347 | 57 | 124 | 2.6 | 2.6 | 0.00 | 0.00 | 0.00 | 55 | 1023.7 |
| 20260508191845 | 58 | 110 | 4.3 | 5.2 | 0.00 | 0.00 | 0.00 | 57 | 1023.8 |
| 20260508191342 | 57 | 106 | 1.7 | 2.6 | 0.00 | 0.00 | 0.00 | 56 | 1023.6 |
| 20260508190839 | 58 | 121 | 3.5 | 4.3 | 0.00 | 0.00 | 0.00 | 54 | 1023.6 |
| 20260508190335 | 58 | 313 | 3.5 | 5.2 | 0.00 | 0.00 | 0.00 | 56 | 1023.7 |
| 20260508185831 | 58 | 23 | 3.5 | 6.1 | 0.00 | 0.00 | 0.00 | 56 | 1023.8 |
| 20260508185329 | 57 | 328 | 2.6 | 4.3 | 0.00 | 0.00 | 0.00 | 58 | 1023.6 |
| 20260508184826 | 58 | 10 | 2.6 | 2.6 | 0.00 | 0.00 | 0.00 | 56 | 1023.8 |